Вернуться в каталог

CZ-4B DEB

АктивенSSO
NORAD 38311·DEBRIS·🇨🇳 China

Запущен Dec 22, 2011 с Taiyuan Satellite Launch Center

Loading…

Ближайшие Пролёты (ближайшие 24 часа)

TLE

СвежийSource: Space-Track

Эпоха: Sep 14, 2026, 10:12 UTC

1 38311U 11079E   26257.42506774  .00001210  00000-0  28923-3 0  9992
2 38311  98.1854 238.8749 0099851 221.7444 291.7601 14.52436871772081

Отслеживайте CZ-4B DEB в реальном времени с AllMySat

Download on the App Store